[[{"header":{"parameterUnit":"m.s-1","parameterCategory":1,"la1":30.2991,"la2":30.254,"lo1":-89.0895,"lo2":-89.0444,"dy":0.0017,"dx":0.0017,"nx":28,"ny":28,"refTime":"2023-03-22T21:00:00:Z","depth":0,"parameterNumber":2,"parameterNumberName":"U-component_of_WINDS"},"data":[0,0,0,0,0,0,0,0,0,0,0,0,0,0,0,0,0,0,0,0,0,0,0,0,0,0,0,0,0,0,0,0,0,0,0,0,0,0,0,0,0,0,0,0,0,0,0,0,0,0,0,0,0,0,0,0,0,0,-1.0609,-1.0609,0,-1.0662,-1.0663,-1.0664,-1.0669,-1.0668,-1.0668,-1.0667,-1.0724,-1.0726,-1.0728,0,0,0,0,0,0,0,0,0,0,0,0,0,-1.0512,-1.0514,-1.0608,-1.0609,-1.061,-1.0662,-1.0663,-1.0664,-1.0669,-1.0668,-1.0668,-1.0667,-1.0723,-1.0726,-1.0728,0,0,0,0,0,0,0,0,0,0,0,0,0,-1.0559,-1.0515,-1.0608,-1.0619,-1.062,-1.0662,-1.0663,-1.0664,-1.0669,-1.0668,-1.0667,-1.0667,-1.0723,-1.0726,-1.0729,-1.0765,0,0,-1.0738,-1.0739,0,0,0,0,0,0,0,0,-1.0556,-1.0563,-1.0616,-1.0618,-1.062,-1.0658,-1.065,-1.0698,-1.0669,-1.0651,-1.0667,-1.0666,-1.0703,-1.0708,-1.072,-1.0767,-1.077,-1.0738,-1.074,-1.0742,-1.0742,0,0,0,0,0,0,0,-1.0553,-1.056,-1.063,-1.0617,-1.0619,-1.0621,-1.0627,-1.0659,-1.0681,-1.0652,-1.0653,-1.0659,-1.0704,-1.0717,-1.0721,-1.0771,-1.0738,-1.0741,-1.0743,-1.0744,-1.0852,-1.0853,0,0,0,0,0,0,-1.0548,-1.0558,-1.0628,-1.0632,-1.0585,-1.0624,-1.063,-1.0647,-1.0681,-1.0685,-1.0659,-1.0659,-1.0712,-1.0717,-1.0723,-1.0768,-1.0742,-1.0744,-1.0746,-1.0851,-1.0852,-1.0853,0,0,0,0,0,0,-1.0546,-1.0554,-1.0626,-1.0595,-1.0604,-1.0626,-1.0645,-1.0648,-1.0661,-1.0686,-1.069,-1.0669,-1.0711,-1.0719,-1.0754,-1.077,-1.0746,-1.0749,-1.0849,-1.0851,-1.0852,-1.0857,0,0,0,0,0,0,-1.0543,-1.0553,-1.0566,-1.0595,-1.0606,-1.0656,-1.0646,-1.065,-1.0666,-1.0666,-1.0696,-1.07,-1.0711,-1.075,-1.0757,-1.0773,-1.0751,-1.0848,-1.085,-1.0852,-1.0855,-1.0858,-1.0861,0,0,0,0,0,-1.0539,-1.0566,-1.0567,-1.0576,-1.0623,-1.0656,-1.0663,-1.0675,-1.0667,-1.0681,-1.0698,-1.0699,-1.0767,-1.0753,-1.0762,-1.0779,-1.0847,-1.085,-1.0852,-1.0854,-1.0858,-1.0861,0,0,0,0,0,0,-1.0539,-1.057,-1.0571,-1.0608,-1.0629,-1.0657,-1.0675,-1.0678,-1.0703,-1.0701,-1.0716,-1.0723,-1.0758,-1.0772,-1.0757,-1.0816,-1.0806,-1.0811,-1.0805,-1.0809,-1.0811,-1.0807,-1.0754,0,0,0,0,0,-1.0543,-1.0567,-1.0593,-1.0623,-1.0633,-1.0652,-1.0668,-1.0675,-1.0698,-1.0708,-1.0727,-1.075,-1.0776,-1.0794,-1.082,-1.0858,-1.0865,-1.0874,-1.0877,-1.0879,-1.0882,-1.0904,-1.0908,-1.086,-1.086,-1.086,0,0,-1.0551,-1.0571,-1.0586,-1.0623,-1.0641,-1.0666,-1.066,-1.0687,-1.0706,-1.0712,-1.0746,-1.0761,-1.0788,-1.0826,-1.0843,-1.0839,-1.0897,-1.0882,-1.0883,-1.0885,-1.0906,-1.0911,-1.0915,-1.0862,-1.0862,-1.0861,0,0,-1.058,-1.0597,-1.0624,-1.0642,-1.0669,-1.0681,-1.0688,-1.0715,-1.0725,-1.076,-1.0765,-1.0789,-1.0834,-1.0853,-1.0869,-1.0906,-1.0908,-1.0914,-1.0928,-1.0949,-1.0953,-1.0956,-1.0969,-1.0973,-1.0918,-1.0918,-1.0918,0,-1.0587,-1.0625,-1.0637,-1.0664,-1.0681,-1.0687,-1.0714,-1.0731,-1.0766,-1.0777,-1.0772,-1.083,-1.0848,-1.089,-1.0899,-1.0912,-1.092,-1.091,-1.0951,-1.0955,-1.0958,-1.097,-1.0975,-1.0918,-1.0918,-1.0918,-1.0918,0,-1.0633,-1.0659,-1.0677,-1.0709,-1.0728,-1.0755,-1.0772,-1.079,-1.0797,-1.081,-1.0846,-1.0869,-1.0899,-1.091,-1.0917,-1.0953,-1.095,-1.0948,-1.0938,-1.0963,-1.0975,-1.098,-1.0919,-1.0919,-1.0918,-1.0918,0,0,-1.0661,-1.07,-1.0707,-1.0721,-1.0752,-1.0773,-1.0801,-1.083,-1.0845,-1.0869,-1.0893,-1.0932,-1.0931,-1.0948,-1.0958,-1.0976,-1.1004,-1.0972,-1.0973,-1.0976,-1.1045,-1.1046,-1.1051,-1.1006,-1.1007,-1.1008,-1.1043,0,-1.0692,-1.0741,-1.0753,-1.0795,-1.082,-1.0827,-1.0851,-1.0873,-1.0887,-1.0911,-1.0927,-1.0954,-1.095,-1.096,-1.0979,-1.0996,-1.1018,-1.0994,-1.1029,-1.103,-1.102,-1.1058,-1.1058,-1.109,-1.1048,-1.1049,-1.1049,0,-1.0735,-1.0759,-1.0803,-1.0831,-1.0842,-1.0863,-1.0892,-1.0914,-1.094,-1.0948,-1.0969,-1.0976,-1.1007,-1.0996,-1.1038,-1.1022,-1.1037,-1.1048,-1.105,-1.1053,-1.104,-1.1061,-1.1101,-1.1105,-1.1057,-1.1056,-1.1056,0,-1.0751,-1.0794,-1.0826,-1.0839,-1.0872,-1.0887,-1.0902,-1.0927,-1.0944,-1.0969,-1.0981,-1.101,-1.1025,-1.1048,-1.1063,-1.1054,-1.1104,-1.1095,-1.1113,-1.1112,-1.1122,-1.1121,-1.1164,-1.1133,-1.1133,-1.1133,-1.1133,0,-1.0784,-1.081,-1.0834,-1.0853,-1.0883,-1.0898,-1.0928,-1.0943,-1.0966,-1.0989,-1.0998,-1.1019,-1.1039,-1.1064,-1.1077,-1.1109,-1.1117,-1.1125,-1.1128,-1.1124,-1.1123,-1.1133,-1.1131,-1.1134,-1.1134,-1.1134,-1.1134,0,-1.0806,-1.0822,-1.0857,-1.0886,-1.0894,-1.0915,-1.094,-1.096,-1.0975,-1.1004,-1.1012,-1.1035,-1.1065,-1.1083,-1.1121,-1.1129,-1.1166,-1.1168,-1.1157,-1.1158,-1.1174,-1.1172,-1.1225,-1.1232,-1.1197,-1.1197,-1.1198,0,-1.0825,-1.0846,-1.0877,-1.0892,-1.0907,-1.0933,-1.095,-1.0967,-1.0985,-1.1016,-1.1032,-1.1062,-1.1087,-1.1134,-1.1155,-1.1184,-1.1187,-1.1204,-1.1191,-1.1187,-1.1187,-1.1185,-1.1187,-1.1205,-1.1206,-1.1206,-1.1206,0,-1.0858,-1.0865,-1.089,-1.0917,-1.0938,-1.0961,-1.0983,-1.0996,-1.1017,-1.1037,-1.1067,-1.1086,-1.1125,-1.1155,-1.1186,-1.1202,-1.1208,-1.121,-1.1215,-1.1211,-1.1203,-1.1207,-1.1161,-1.1208,-1.1208,-1.1208,-1.1208,-1.1208,-1.0879,-1.0898,-1.0922,-1.0949,-1.0968,-1.0989,-1.1009,-1.1026,-1.1052,-1.1084,-1.1092,-1.1124,-1.115,-1.1192,-1.121,-1.1235,-1.1233,-1.1241,-1.1243,-1.1244,-1.1244,-1.12,-1.1241,-1.1241,-1.1241,-1.1241,-1.1241,0,-1.0912,-1.0928,-1.0953,-1.0984,-1.1006,-1.1009,-1.1035,-1.1053,-1.108,-1.1104,-1.1128,-1.1163,-1.1193,-1.1216,-1.1246,-1.1263,-1.1266,-1.127,-1.1268,-1.1272,-1.1245,-1.1237,-1.1267,-1.1267,-1.1267,-1.1267,-1.1267,-1.1267,-1.0931,-1.0963,-1.0973,-1.1015,-1.1031,-1.1062,-1.1076,-1.1096,-1.1115,-1.1153,-1.1178,-1.1192,-1.1216,-1.1249,-1.1276,-1.1282,-1.1293,-1.1296,-1.1303,-1.1277,-1.1274,-1.1271,-1.1264,-1.1299,-1.1299,-1.1328,-1.1328,-1.1328]},{"header":{"parameterUnit":"m.s-1","parameterCategory":1,"la1":30.2991,"la2":30.254,"lo1":-89.0895,"lo2":-89.0444,"dy":0.0017,"dx":0.0017,"nx":28,"ny":28,"refTime":"2023-03-22T21:00:00:Z","depth":0,"parameterNumber":3,"parameterNumberName":"V-component_of_WINDS"},"data":[0,0,0,0,0,0,0,0,0,0,0,0,0,0,0,0,0,0,0,0,0,0,0,0,0,0,0,0,0,0,0,0,0,0,0,0,0,0,0,0,0,0,0,0,0,0,0,0,0,0,0,0,0,0,0,0,0,0,2.4045,2.4045,0,2.4001,2.4,2.4,2.3887,2.3885,2.3882,2.388,2.3837,2.3839,2.384,0,0,0,0,0,0,0,0,0,0,0,0,0,2.4037,2.4038,2.4045,2.4045,2.4044,2.4001,2.4,2.4,2.3887,2.3885,2.3882,2.3879,2.3837,2.3838,2.384,0,0,0,0,0,0,0,0,0,0,0,0,0,2.4021,2.4038,2.4045,2.3983,2.3977,2.4001,2.4,2.4,2.3888,2.3884,2.3881,2.3877,2.3837,2.3838,2.384,2.3922,0,0,2.3845,2.3846,0,0,0,0,0,0,0,0,2.4022,2.4022,2.3993,2.3987,2.398,2.3946,2.3982,2.3974,2.3889,2.3922,2.388,2.3876,2.3877,2.3875,2.3874,2.392,2.3918,2.3845,2.3846,2.3847,2.3847,0,0,0,0,0,0,0,2.4024,2.4023,2.4028,2.3992,2.3985,2.3958,2.3952,2.398,2.392,2.3919,2.391,2.3907,2.3873,2.3873,2.3873,2.3918,2.3845,2.3847,2.3848,2.3848,2.4032,2.4035,0,0,0,0,0,0,2.4033,2.4025,2.4029,2.4026,2.3993,2.3961,2.3954,2.3961,2.3919,2.391,2.391,2.3901,2.3872,2.3871,2.3871,2.3966,2.3847,2.3848,2.3849,2.4028,2.4032,2.4037,0,0,0,0,0,0,2.4034,2.4035,2.4031,2.4023,2.4021,2.3965,2.3973,2.3962,2.3962,2.3912,2.3902,2.3921,2.3869,2.3868,2.3911,2.3963,2.3849,2.3851,2.4023,2.4029,2.4034,2.4157,0,0,0,0,0,0,2.4034,2.4035,2.4065,2.4025,2.4022,2.4071,2.3976,2.3963,2.3965,2.3954,2.392,2.3911,2.3866,2.3909,2.3912,2.3963,2.3852,2.4018,2.4026,2.4033,2.4148,2.4166,2.4182,0,0,0,0,0,2.4034,2.4102,2.4067,2.4068,2.4057,2.4074,2.4072,2.4018,2.3969,2.4,2.3968,2.3912,2.3957,2.3914,2.3917,2.3969,2.4015,2.4024,2.4032,2.4141,2.4163,2.4182,0,0,0,0,0,0,2.415,2.4095,2.4056,2.4113,2.4099,2.4055,2.4091,2.4043,2.4044,2.4033,2.3967,2.3961,2.4013,2.3995,2.3949,2.4048,2.3977,2.3986,2.4058,2.4079,2.4096,2.41,2.3853,0,0,0,0,0,2.4182,2.4199,2.415,2.4205,2.42,2.4148,2.4153,2.4112,2.4096,2.4089,2.4061,2.4048,2.4059,2.4067,2.4075,2.4145,2.4137,2.4182,2.4199,2.4213,2.4223,2.4261,2.4282,2.4065,2.4065,2.4065,0,0,2.4249,2.4221,2.4236,2.4228,2.4212,2.4233,2.4143,2.4168,2.4184,2.4093,2.4132,2.4111,2.4092,2.4149,2.4173,2.4136,2.4281,2.4225,2.4236,2.4238,2.4273,2.4293,2.4312,2.4071,2.407,2.4069,0,0,2.4382,2.4361,2.4406,2.4392,2.437,2.4334,2.4345,2.4309,2.4291,2.4328,2.4262,2.428,2.4299,2.4289,2.4287,2.4418,2.4368,2.4422,2.4511,2.4549,2.4566,2.4581,2.463,2.4649,2.4432,2.4432,2.4432,0,2.4468,2.4495,2.4435,2.4465,2.4464,2.4383,2.4429,2.4418,2.44,2.4403,2.4361,2.4386,2.4367,2.4422,2.4454,2.4454,2.4466,2.4426,2.4569,2.4583,2.4596,2.4642,2.466,2.4439,2.4438,2.4437,2.4437,0,2.4604,2.4624,2.4662,2.4647,2.465,2.4688,2.4635,2.4646,2.4606,2.4576,2.4616,2.4591,2.4593,2.4603,2.4563,2.4653,2.4631,2.458,2.4507,2.4625,2.4667,2.4684,2.4449,2.4446,2.4444,2.4443,0,0,2.4809,2.4759,2.4775,2.4768,2.4737,2.4753,2.4788,2.4789,2.4801,2.4791,2.482,2.484,2.4793,2.479,2.4749,2.4783,2.4891,2.4728,2.4726,2.4761,2.4991,2.5032,2.5053,2.4857,2.486,2.4862,2.4994,0,2.4935,2.4991,2.4939,2.5006,2.5025,2.4949,2.4979,2.4966,2.4939,2.4952,2.4922,2.4938,2.4874,2.4872,2.4901,2.4872,2.4937,2.4861,2.4886,2.4887,2.4895,2.5074,2.5117,2.5242,2.501,2.5012,2.5014,0,2.5091,2.5088,2.5158,2.5125,2.5131,2.5159,2.5157,2.517,2.5154,2.5132,2.513,2.508,2.5114,2.5042,2.5089,2.5039,2.5046,2.5033,2.5037,2.5039,2.496,2.5084,2.528,2.53,2.5039,2.5037,2.5036,0,2.5237,2.525,2.5294,2.529,2.5252,2.5274,2.526,2.5239,2.5244,2.5243,2.5246,2.5248,2.5251,2.5255,2.5208,2.5159,2.5263,2.5186,2.5248,2.5249,2.5274,2.5274,2.5477,2.5275,2.5275,2.5275,2.5274,0,2.5385,2.5431,2.5359,2.5386,2.5436,2.5376,2.5427,2.5405,2.5388,2.5411,2.5345,2.5368,2.5304,2.5321,2.5284,2.5331,2.5332,2.5317,2.5307,2.5324,2.5326,2.5329,2.532,2.528,2.5278,2.5277,2.5277,0,2.5557,2.551,2.5553,2.5514,2.5505,2.5544,2.5511,2.5536,2.5504,2.5534,2.5538,2.549,2.5507,2.546,2.5469,2.5445,2.5513,2.5488,2.5519,2.5512,2.5577,2.5573,2.5791,2.5818,2.5598,2.56,2.5602,0,2.5655,2.5689,2.5653,2.5664,2.5653,2.567,2.5674,2.5617,2.5625,2.5609,2.5636,2.5647,2.5654,2.5685,2.5651,2.5659,2.5635,2.5711,2.5636,2.5653,2.5639,2.5639,2.5643,2.5728,2.573,2.5732,2.5734,0,2.5836,2.5812,2.582,2.5822,2.583,2.5828,2.5822,2.5835,2.5773,2.5786,2.5802,2.5807,2.5817,2.583,2.583,2.5817,2.5767,2.5758,2.5773,2.5792,2.5809,2.5803,2.5564,2.5754,2.5752,2.575,2.5749,2.5748,2.5976,2.6003,2.5983,2.5996,2.5985,2.5981,2.6003,2.5975,2.5987,2.599,2.5955,2.598,2.5964,2.596,2.5952,2.5971,2.5936,2.5958,2.5963,2.597,2.5983,2.5805,2.5971,2.597,2.5969,2.5969,2.5968,0,2.6156,2.6139,2.6151,2.6145,2.6156,2.6106,2.6097,2.611,2.6132,2.6121,2.6128,2.6148,2.6161,2.6129,2.6137,2.6159,2.6137,2.6164,2.6163,2.6161,2.6012,2.5999,2.6182,2.6182,2.6182,2.6182,2.6182,2.6182,2.6251,2.6295,2.6269,2.6308,2.6291,2.6313,2.6313,2.631,2.6301,2.6327,2.6337,2.6315,2.6297,2.6303,2.6314,2.6304,2.6311,2.6347,2.633,2.6192,2.6171,2.6151,2.6139,2.6348,2.6349,2.6478,2.6479,2.648]}]]